| time (UTC) | temp F | wind direction | speed knots | gust knots | rain 1hr in | rain 24hr in | rain mn in | humidity % | barometer mb |
| 20260507052716 | 61 | 198 | 1.7 | 4.3 | 0.00 | 0.00 | 0.00 | 59 | 1009.2 |
| 20260507052216 | 61 | 204 | 1.7 | 4.3 | 0.00 | 0.00 | 0.00 | 59 | 1009.1 |
| 20260507051711 | 61 | 203 | 0.9 | 3.5 | 0.00 | 0.00 | 0.00 | 57 | 1009.1 |
| 20260507051207 | 61 | 184 | 1.7 | 3.5 | 0.00 | 0.00 | 0.00 | 58 | 1009.1 |
| 20260507050216 | 61 | 215 | 0.9 | 3.5 | 0.00 | 0.00 | 0.00 | 60 | 1008.9 |
| 20260507045719 | 61 | 155 | 0.9 | 4.3 | 0.00 | 0.00 | 0.00 | 60 | 1008.9 |
| 20260507045219 | 61 | 193 | 0.9 | 4.3 | 0.00 | 0.00 | 0.00 | 60 | 1008.8 |
| 20260507044715 | 61 | 155 | 2.6 | 4.3 | 0.00 | 0.00 | 0.00 | 59 | 1008.7 |
| 20260507042715 | 60 | 107 | 0.9 | 7.8 | 0.00 | 0.00 | 0.00 | 58 | 1008.4 |
| 20260507042216 | 60 | 229 | 1.7 | 7.8 | 0.00 | 0.00 | 0.00 | 58 | 1008.3 |
| 20260507041719 | 60 | 344 | 1.7 | 7.8 | 0.00 | 0.00 | 0.00 | 57 | 1008.2 |
| 20260507041206 | 60 | 248 | 2.6 | 7.0 | 0.00 | 0.00 | 0.00 | 58 | 1008.0 |
| 20260507040709 | 60 | 276 | 2.6 | 7.0 | 0.00 | 0.00 | 0.00 | 58 | 1008.0 |
| 20260507035713 | 60 | 258 | 0.9 | 4.3 | 0.00 | 0.00 | 0.00 | 59 | 1007.8 |
| 20260507035209 | 60 | 295 | 1.7 | 4.3 | 0.00 | 0.00 | 0.00 | 60 | 1007.7 |
| 20260507034710 | 60 | 262 | 1.7 | 5.2 | 0.00 | 0.00 | 0.00 | 60 | 1007.8 |
| 20260507032706 | 60 | 257 | 3.5 | 8.7 | 0.00 | 0.00 | 0.00 | 60 | 1007.8 |
| 20260507032210 | 60 | 278 | 4.3 | 8.7 | 0.00 | 0.00 | 0.00 | 60 | 1007.8 |
| 20260507031714 | 60 | 272 | 4.3 | 8.7 | 0.00 | 0.00 | 0.00 | 60 | 1007.8 |
| 20260507031214 | 60 | 304 | 3.5 | 8.7 | 0.00 | 0.00 | 0.00 | 61 | 1007.8 |
| 20260507030214 | 60 | 297 | 3.5 | 8.7 | 0.00 | 0.00 | 0.00 | 62 | 1007.6 |
| 20260507025715 | 60 | 300 | 3.5 | 8.7 | 0.00 | 0.00 | 0.00 | 62 | 1007.5 |
| 20260507025212 | 60 | 267 | 4.3 | 9.6 | 0.00 | 0.00 | 0.00 | 63 | 1007.4 |
| 20260507023713 | 60 | 325 | 4.3 | 9.6 | 0.00 | 0.00 | 0.00 | 63 | 1007.5 |
| 20260507023219 | 60 | 303 | 4.3 | 10.4 | 0.00 | 0.00 | 0.00 | 63 | 1007.5 |
| 20260507022713 | 60 | 331 | 4.3 | 10.4 | 0.00 | 0.00 | 0.00 | 63 | 1007.6 |
| 20260507021716 | 60 | 339 | 4.3 | 7.8 | 0.00 | 0.00 | 0.00 | 63 | 1007.5 |
| 20260507021217 | 60 | 334 | 4.3 | 7.8 | 0.00 | 0.00 | 0.00 | 63 | 1007.4 |
| 20260507020705 | 60 | 327 | 3.5 | 7.8 | 0.00 | 0.00 | 0.00 | 63 | 1007.5 |
| 20260507020218 | 60 | 338 | 3.5 | 10.4 | 0.00 | 0.00 | 0.00 | 63 | 1007.5 |
| 20260507015711 | 60 | 347 | 4.3 | 10.4 | 0.00 | 0.00 | 0.00 | 63 | 1007.5 |
| 20260507015217 | 60 | 344 | 5.2 | 10.4 | 0.00 | 0.00 | 0.00 | 63 | 1007.4 |
| 20260507014710 | 60 | 294 | 6.1 | 10.4 | 0.00 | 0.00 | 0.00 | 63 | 1007.4 |
| 20260507014217 | 60 | 315 | 5.2 | 10.4 | 0.00 | 0.00 | 0.00 | 63 | 1007.4 |
| 20260507013709 | 60 | 345 | 5.2 | 10.4 | 0.00 | 0.00 | 0.00 | 63 | 1007.3 |
| 20260507013211 | 60 | 295 | 3.5 | 10.4 | 0.00 | 0.00 | 0.00 | 63 | 1007.3 |
| 20260507012706 | 60 | 355 | 4.3 | 13.0 | 0.00 | 0.00 | 0.00 | 63 | 1007.2 |
| 20260507012209 | 60 | 311 | 6.1 | 13.0 | 0.00 | 0.00 | 0.00 | 63 | 1007.3 |
| 20260507011210 | 60 | 315 | 6.1 | 12.2 | 0.00 | 0.00 | 0.00 | 63 | 1007.3 |
| 20260507010218 | 61 | 341 | 7.0 | 13.0 | 0.00 | 0.00 | 0.00 | 64 | 1007.1 |
| 20260507005706 | 61 | 320 | 7.0 | 13.0 | 0.00 | 0.00 | 0.00 | 64 | 1007.0 |
| 20260507005212 | 61 | 343 | 7.0 | 12.2 | 0.00 | 0.00 | 0.00 | 64 | 1007.0 |
| 20260507004709 | 61 | 340 | 7.0 | 13.0 | 0.00 | 0.00 | 0.00 | 64 | 1007.0 |
| 20260507004213 | 61 | 338 | 7.0 | 13.9 | 0.00 | 0.00 | 0.00 | 65 | 1006.9 |
| 20260507003712 | 61 | 313 | 7.0 | 13.9 | 0.00 | 0.00 | 0.00 | 65 | 1006.9 |
| 20260507003218 | 61 | 330 | 7.0 | 13.9 | 0.00 | 0.00 | 0.00 | 66 | 1006.9 |
| 20260507002715 | 61 | 323 | 7.0 | 12.2 | 0.00 | 0.00 | 0.00 | 67 | 1006.9 |
| 20260507002212 | 61 | 311 | 6.1 | 12.2 | 0.00 | 0.00 | 0.00 | 68 | 1006.9 |
| 20260507001708 | 61 | 303 | 4.3 | 8.7 | 0.00 | 0.00 | 0.00 | 68 | 1006.8 |
| 20260507001207 | 61 | 303 | 4.3 | 10.4 | 0.00 | 0.00 | 0.00 | 68 | 1006.8 |
| 20260507000709 | 61 | 11 | 6.1 | 10.4 | 0.00 | 0.00 | 0.00 | 68 | 1006.8 |
| 20260507000208 | 61 | 12 | 6.1 | 10.4 | 0.00 | 0.00 | 0.00 | 68 | 1006.8 |
| 20260506235719 | 61 | 13 | 5.2 | 10.4 | 0.00 | 0.00 | 0.00 | 68 | 1006.8 |
| 20260506235217 | 61 | 337 | 3.5 | 10.4 | 0.00 | 0.00 | 0.00 | 68 | 1006.8 |
| 20260506234715 | 61 | 323 | 1.7 | 7.0 | 0.00 | 0.00 | 0.00 | 66 | 1006.7 |
| 20260506234218 | 61 | 15 | 2.6 | 7.0 | 0.00 | 0.00 | 0.00 | 66 | 1006.7 |
| 20260506233709 | 61 | 0 | 2.6 | 7.0 | 0.00 | 0.00 | 0.00 | 66 | 1006.7 |
| 20260506233218 | 61 | 330 | 3.5 | 7.8 | 0.00 | 0.00 | 0.00 | 66 | 1006.6 |
| 20260506232708 | 62 | 30 | 4.3 | 7.8 | 0.00 | 0.00 | 0.00 | 65 | 1006.2 |
| 20260506232215 | 62 | 15 | 3.5 | 6.1 | 0.00 | 0.00 | 0.00 | 65 | 1006.1 |
| 20260506230718 | 62 | 55 | 3.5 | 6.1 | 0.00 | 0.00 | 0.00 | 63 | 1006.1 |
| 20260506230209 | 62 | 49 | 2.6 | 4.3 | 0.00 | 0.00 | 0.00 | 63 | 1006.0 |
| 20260506225709 | 62 | 10 | 1.7 | 4.3 | 0.00 | 0.00 | 0.00 | 62 | 1006.0 |
| 20260506225209 | 62 | 5 | 1.7 | 7.8 | 0.00 | 0.00 | 0.00 | 62 | 1005.9 |
| 20260506224708 | 62 | 355 | 2.6 | 7.8 | 0.00 | 0.00 | 0.00 | 62 | 1005.8 |
| 20260506224210 | 62 | 332 | 2.6 | 7.8 | 0.00 | 0.00 | 0.00 | 62 | 1005.7 |
| 20260506223210 | 62 | 205 | 1.7 | 3.5 | 0.00 | 0.00 | 0.00 | 63 | 1005.4 |
| 20260506222209 | 63 | 180 | 1.7 | 5.2 | 0.00 | 0.00 | 0.00 | 63 | 1005.2 |
| 20260506221719 | 63 | 183 | 1.7 | 7.8 | 0.00 | 0.00 | 0.00 | 63 | 1005.1 |
| 20260506221214 | 63 | 178 | 2.6 | 7.8 | 0.00 | 0.00 | 0.00 | 62 | 1005.1 |
| 20260506220710 | 63 | 212 | 4.3 | 8.7 | 0.00 | 0.00 | 0.00 | 62 | 1005.0 |
| 20260506220214 | 63 | 232 | 5.2 | 8.7 | 0.00 | 0.00 | 0.00 | 62 | 1004.9 |
| 20260506215709 | 63 | 225 | 5.2 | 8.7 | 0.00 | 0.00 | 0.00 | 63 | 1004.8 |
| 20260506215211 | 63 | 225 | 3.5 | 7.0 | 0.00 | 0.00 | 0.00 | 63 | 1004.7 |
| 20260506214718 | 63 | 204 | 2.6 | 7.0 | 0.00 | 0.00 | 0.00 | 63 | 1004.6 |
| 20260506214219 | 63 | 185 | 3.5 | 7.0 | 0.00 | 0.00 | 0.00 | 63 | 1004.6 |
| 20260506213721 | 63 | 186 | 3.5 | 6.1 | 0.00 | 0.00 | 0.00 | 63 | 1004.5 |
| 20260506213218 | 63 | 192 | 3.5 | 9.6 | 0.00 | 0.00 | 0.00 | 63 | 1004.4 |
| 20260506212708 | 63 | 204 | 4.3 | 9.6 | 0.00 | 0.00 | 0.00 | 63 | 1004.2 |
| 20260506212205 | 64 | 160 | 4.3 | 9.6 | 0.00 | 0.00 | 0.00 | 63 | 1004.3 |
| 20260506211711 | 64 | 225 | 4.3 | 8.7 | 0.00 | 0.00 | 0.00 | 62 | 1004.3 |
| 20260506211216 | 64 | 197 | 4.3 | 10.4 | 0.00 | 0.00 | 0.00 | 63 | 1004.3 |
| 20260506210711 | 64 | 165 | 5.2 | 10.4 | 0.00 | 0.00 | 0.00 | 63 | 1004.2 |
| 20260506210216 | 64 | 194 | 5.2 | 10.4 | 0.00 | 0.00 | 0.00 | 63 | 1004.1 |
| 20260506205712 | 64 | 205 | 5.2 | 11.3 | 0.00 | 0.00 | 0.00 | 63 | 1003.9 |
| 20260506205205 | 64 | 219 | 6.1 | 14.8 | 0.00 | 0.00 | 0.00 | 63 | 1004.0 |
| 20260506204713 | 64 | 140 | 6.1 | 14.8 | 0.00 | 0.00 | 0.00 | 63 | 1003.9 |
| 20260506204213 | 64 | 136 | 7.0 | 14.8 | 0.00 | 0.00 | 0.00 | 63 | 1003.7 |
| 20260506203216 | 64 | 140 | 7.0 | 13.0 | 0.00 | 0.00 | 0.00 | 63 | 1003.6 |
| 20260506202718 | 64 | 184 | 7.0 | 16.5 | 0.00 | 0.00 | 0.00 | 63 | 1003.7 |
| 20260506202221 | 64 | 194 | 7.0 | 16.5 | 0.00 | 0.00 | 0.00 | 63 | 1003.6 |
| 20260506201719 | 64 | 211 | 7.0 | 16.5 | 0.00 | 0.00 | 0.00 | 62 | 1003.6 |
| 20260506201216 | 65 | 190 | 7.0 | 17.4 | 0.00 | 0.00 | 0.00 | 62 | 1003.6 |
| 20260506200718 | 65 | 173 | 7.0 | 20.0 | 0.00 | 0.00 | 0.00 | 62 | 1003.5 |
| 20260506200215 | 65 | 180 | 7.8 | 20.0 | 0.00 | 0.00 | 0.00 | 62 | 1003.5 |
| 20260506195216 | 65 | 207 | 8.7 | 23.5 | 0.00 | 0.00 | 0.00 | 62 | 1003.2 |
| 20260506194710 | 65 | 223 | 8.7 | 13.9 | 0.00 | 0.00 | 0.00 | 62 | 1003.0 |
| 20260506194214 | 65 | 163 | 8.7 | 13.0 | 0.00 | 0.00 | 0.00 | 62 | 1003.1 |
| 20260506193705 | 65 | 199 | 7.0 | 16.5 | 0.00 | 0.00 | 0.00 | 62 | 1003.3 |
| 20260506192714 | 65 | 165 | 7.8 | 16.5 | 0.00 | 0.00 | 0.00 | 61 | 1003.4 |
| 20260506192207 | 66 | 165 | 7.8 | 13.9 | 0.00 | 0.00 | 0.00 | 61 | 1003.2 |
| 20260506191714 | 66 | 205 | 6.1 | 13.9 | 0.00 | 0.00 | 0.00 | 61 | 1003.3 |
| 20260506191208 | 66 | 183 | 6.1 | 16.5 | 0.00 | 0.00 | 0.00 | 60 | 1003.4 |
| 20260506190717 | 66 | 183 | 7.0 | 16.5 | 0.00 | 0.00 | 0.00 | 60 | 1003.3 |
| 20260506185705 | 66 | 194 | 8.7 | 21.7 | 0.00 | 0.00 | 0.00 | 59 | 1003.1 |
| 20260506184213 | 67 | 190 | 7.8 | 15.6 | 0.00 | 0.00 | 0.00 | 59 | 1002.7 |
| 20260506182706 | 67 | 205 | 9.6 | 18.2 | 0.00 | 0.00 | 0.00 | 58 | 1002.5 |
| 20260506182206 | 67 | 204 | 8.7 | 18.2 | 0.00 | 0.00 | 0.00 | 58 | 1002.5 |
| 20260506181711 | 67 | 185 | 7.8 | 15.6 | 0.00 | 0.00 | 0.00 | 58 | 1002.7 |
| 20260506181208 | 67 | 202 | 7.8 | 15.6 | 0.00 | 0.00 | 0.00 | 58 | 1002.7 |
| 20260506180719 | 68 | 178 | 8.7 | 15.6 | 0.00 | 0.00 | 0.00 | 58 | 1002.7 |
| 20260506175718 | 68 | 201 | 8.7 | 15.6 | 0.00 | 0.00 | 0.00 | 57 | 1003.0 |
| 20260506175216 | 68 | 177 | 8.7 | 14.8 | 0.00 | 0.00 | 0.00 | 56 | 1003.1 |
| 20260506174708 | 68 | 189 | 7.0 | 15.6 | 0.00 | 0.00 | 0.00 | 56 | 1003.2 |
| 20260506174210 | 69 | 192 | 7.0 | 15.6 | 0.00 | 0.00 | 0.00 | 56 | 1003.4 |
| 20260506173719 | 69 | 154 | 6.1 | 15.6 | 0.00 | 0.00 | 0.00 | 55 | 1003.3 |
| 20260506173212 | 69 | 205 | 6.1 | 12.2 | 0.00 | 0.00 | 0.00 | 55 | 1003.4 |
| 20260506172216 | 69 | 206 | 7.0 | 17.4 | 0.00 | 0.00 | 0.00 | 55 | 1003.3 |
| 20260506171714 | 70 | 162 | 7.8 | 17.4 | 0.00 | 0.00 | 0.00 | 54 | 1003.1 |
| 20260506170706 | 70 | 177 | 8.7 | 20.0 | 0.00 | 0.00 | 0.00 | 53 | 1003.2 |
| 20260506170235 | 70 | 173 | 8.7 | 20.0 | 0.00 | 0.00 | 0.00 | 53 | 1003.2 |
| 20260506165706 | 71 | 208 | 8.7 | 21.7 | 0.00 | 0.00 | 0.00 | 52 | 1003.2 |
| 20260506164715 | 71 | 207 | 8.7 | 21.7 | 0.00 | 0.00 | 0.00 | 51 | 1003.1 |
| 20260506164207 | 71 | 174 | 8.7 | 14.8 | 0.00 | 0.00 | 0.00 | 50 | 1003.2 |
| 20260506163717 | 72 | 175 | 7.8 | 14.8 | 0.00 | 0.00 | 0.00 | 50 | 1003.2 |
| 20260506163216 | 72 | 196 | 7.8 | 20.0 | 0.00 | 0.00 | 0.00 | 50 | 1003.2 |
| 20260506162712 | 72 | 214 | 8.7 | 21.7 | 0.00 | 0.00 | 0.00 | 50 | 1003.1 |
| 20260506162232 | 73 | 182 | 11.3 | 22.6 | 0.00 | 0.00 | 0.00 | 49 | 1003.2 |
| 20260506160235 | 74 | 180 | 10.4 | 20.0 | 0.00 | 0.00 | 0.00 | 47 | 1003.2 |
| 20260506155707 | 74 | 232 | 9.6 | 20.0 | 0.00 | 0.00 | 0.00 | 47 | 1003.2 |
| 20260506155211 | 74 | 196 | 10.4 | 20.0 | 0.00 | 0.00 | 0.00 | 48 | 1003.3 |
| 20260506154209 | 74 | 180 | 8.7 | 16.5 | 0.00 | 0.00 | 0.00 | 48 | 1003.4 |
| 20260506153708 | 74 | 138 | 7.8 | 14.8 | 0.00 | 0.00 | 0.00 | 48 | 1003.5 |
| 20260506153214 | 74 | 188 | 7.8 | 22.6 | 0.00 | 0.00 | 0.00 | 48 | 1003.4 |
| 20260506152211 | 74 | 161 | 8.7 | 22.6 | 0.00 | 0.00 | 0.00 | 48 | 1003.4 |
| 20260506151714 | 74 | 161 | 10.4 | 20.9 | 0.00 | 0.00 | 0.00 | 48 | 1003.4 |
| 20260506151219 | 74 | 205 | 11.3 | 20.9 | 0.00 | 0.00 | 0.00 | 48 | 1003.5 |
| 20260506150714 | 74 | 168 | 10.4 | 22.6 | 0.00 | 0.00 | 0.00 | 48 | 1003.6 |
| 20260506145719 | 74 | 173 | 10.4 | 24.3 | 0.00 | 0.00 | 0.00 | 48 | 1003.6 |
| 20260506144710 | 74 | 199 | 11.3 | 26.1 | 0.00 | 0.00 | 0.00 | 48 | 1003.6 |
| 20260506144211 | 74 | 197 | 12.2 | 26.9 | 0.00 | 0.00 | 0.00 | 47 | 1003.6 |
| 20260506143210 | 76 | 196 | 15.6 | 26.9 | 0.00 | 0.00 | 0.00 | 46 | 1003.6 |
| 20260506142716 | 76 | 187 | 15.6 | 26.9 | 0.00 | 0.00 | 0.00 | 46 | 1003.6 |
| 20260506142209 | 76 | 186 | 13.0 | 23.5 | 0.00 | 0.00 | 0.00 | 45 | 1003.5 |
| 20260506141706 | 77 | 165 | 12.2 | 22.6 | 0.00 | 0.00 | 0.00 | 44 | 1003.5 |
| 20260506141207 | 76 | 194 | 11.3 | 22.6 | 0.00 | 0.00 | 0.00 | 44 | 1003.6 |
| 20260506140715 | 76 | 181 | 9.6 | 21.7 | 0.00 | 0.00 | 0.00 | 44 | 1003.5 |
| 20260506140217 | 76 | 215 | 9.6 | 21.7 | 0.00 | 0.00 | 0.00 | 41 | 1003.6 |
| 20260506135709 | 77 | 217 | 11.3 | 20.0 | 0.00 | 0.00 | 0.00 | 42 | 1003.5 |
| 20260506135219 | 77 | 195 | 11.3 | 20.0 | 0.00 | 0.00 | 0.00 | 42 | 1003.4 |
| 20260506133713 | 78 | 159 | 12.2 | 22.6 | 0.00 | 0.00 | 0.00 | 40 | 1003.4 |
| 20260506133220 | 79 | 177 | 11.3 | 24.3 | 0.00 | 0.00 | 0.00 | 40 | 1003.5 |
| 20260506132711 | 79 | 132 | 11.3 | 24.3 | 0.00 | 0.00 | 0.00 | 39 | 1003.5 |
| 20260506132210 | 79 | 197 | 10.4 | 24.3 | 0.00 | 0.00 | 0.00 | 40 | 1003.6 |
| 20260506131709 | 80 | 198 | 9.6 | 23.5 | 0.00 | 0.00 | 0.00 | 38 | 1003.7 |
| 20260506131214 | 80 | 198 | 10.4 | 24.3 | 0.00 | 0.00 | 0.00 | 39 | 1003.6 |
| 20260506130705 | 80 | 219 | 12.2 | 24.3 | 0.00 | 0.00 | 0.00 | 39 | 1003.7 |
| 20260506130217 | 80 | 200 | 11.3 | 21.7 | 0.00 | 0.00 | 0.00 | 39 | 1003.6 |
| 20260506125713 | 80 | 191 | 9.6 | 21.7 | 0.00 | 0.00 | 0.00 | 39 | 1003.7 |
| 20260506125210 | 79 | 188 | 12.2 | 23.5 | 0.00 | 0.00 | 0.00 | 39 | 1003.7 |
| 20260506123712 | 81 | 178 | 11.3 | 22.6 | 0.00 | 0.00 | 0.00 | 37 | 1003.8 |
| 20260506123217 | 80 | 184 | 12.2 | 24.3 | 0.00 | 0.00 | 0.00 | 37 | 1003.8 |
| 20260506122711 | 79 | 163 | 12.2 | 24.3 | 0.00 | 0.00 | 0.00 | 38 | 1003.8 |
| 20260506122215 | 78 | 221 | 13.0 | 24.3 | 0.00 | 0.00 | 0.00 | 39 | 1003.8 |
| 20260506121216 | 77 | 189 | 13.0 | 24.3 | 0.00 | 0.00 | 0.00 | 39 | 1004.0 |
| 20260506120708 | 77 | 168 | 13.0 | 24.3 | 0.00 | 0.00 | 0.00 | 40 | 1004.0 |
| 20260506120219 | 77 | 194 | 13.0 | 24.3 | 0.00 | 0.00 | 0.00 | 39 | 1003.9 |
| 20260506115707 | 78 | 169 | 13.0 | 23.5 | 0.00 | 0.00 | 0.00 | 38 | 1004.0 |
| 20260506115213 | 78 | 173 | 14.8 | 25.2 | 0.00 | 0.00 | 0.00 | 37 | 1004.0 |
| 20260506114706 | 79 | 159 | 14.8 | 25.2 | 0.00 | 0.00 | 0.00 | 37 | 1004.2 |
| 20260506114219 | 79 | 163 | 14.8 | 25.2 | 0.00 | 0.00 | 0.00 | 38 | 1004.1 |
| 20260506113712 | 79 | 157 | 14.8 | 25.2 | 0.00 | 0.00 | 0.00 | 38 | 1004.1 |
| 20260506113211 | 78 | 165 | 13.9 | 22.6 | 0.00 | 0.00 | 0.00 | 38 | 1004.3 |
| 20260506112708 | 78 | 173 | 12.2 | 21.7 | 0.00 | 0.00 | 0.00 | 38 | 1004.5 |
| 20260506112234 | 79 | 180 | 11.3 | 25.2 | 0.00 | 0.00 | 0.00 | 37 | 1004.5 |
| 20260506110709 | 78 | 192 | 13.0 | 21.7 | 0.00 | 0.00 | 0.00 | 37 | 1004.5 |
| 20260506110209 | 78 | 161 | 12.2 | 20.9 | 0.00 | 0.00 | 0.00 | 37 | 1004.7 |
| 20260506105713 | 78 | 169 | 10.4 | 23.5 | 0.00 | 0.00 | 0.00 | 37 | 1004.6 |
| 20260506105208 | 78 | 157 | 11.3 | 23.5 | 0.00 | 0.00 | 0.00 | 37 | 1004.7 |
| 20260506104707 | 77 | 178 | 12.2 | 23.5 | 0.00 | 0.00 | 0.00 | 38 | 1005.0 |
| 20260506104213 | 77 | 169 | 10.4 | 17.4 | 0.00 | 0.00 | 0.00 | 38 | 1004.9 |
| 20260506103705 | 77 | 168 | 9.6 | 22.6 | 0.00 | 0.00 | 0.00 | 38 | 1005.0 |
| 20260506103217 | 76 | 161 | 10.4 | 22.6 | 0.00 | 0.00 | 0.00 | 37 | 1005.2 |
| 20260506102712 | 76 | 207 | 11.3 | 22.6 | 0.00 | 0.00 | 0.00 | 38 | 1005.4 |
| 20260506102208 | 75 | 159 | 10.4 | 18.2 | 0.00 | 0.00 | 0.00 | 44 | 1005.3 |
| 20260506101711 | 75 | 159 | 10.4 | 18.2 | 0.00 | 0.00 | 0.00 | 45 | 1005.4 |
| 20260506101210 | 74 | 157 | 11.3 | 18.2 | 0.00 | 0.00 | 0.00 | 45 | 1005.6 |
| 20260506100714 | 75 | 130 | 10.4 | 22.6 | 0.00 | 0.00 | 0.00 | 45 | 1005.5 |
| 20260506100228 | 75 | 182 | 10.4 | 22.6 | 0.00 | 0.00 | 0.00 | 45 | 1005.7 |
| 20260506095715 | 75 | 149 | 11.3 | 26.9 | 0.00 | 0.00 | 0.00 | 46 | 1005.9 |
| 20260506095213 | 75 | 171 | 12.2 | 26.9 | 0.00 | 0.00 | 0.00 | 46 | 1005.8 |
| 20260506094712 | 75 | 99 | 12.2 | 26.9 | 0.00 | 0.00 | 0.00 | 46 | 1005.9 |
| 20260506094206 | 75 | 107 | 11.3 | 20.9 | 0.00 | 0.00 | 0.00 | 46 | 1005.9 |
| 20260506093710 | 75 | 180 | 12.2 | 20.9 | 0.00 | 0.00 | 0.00 | 46 | 1006.1 |
| 20260506093206 | 75 | 163 | 12.2 | 20.9 | 0.00 | 0.00 | 0.00 | 46 | 1006.2 |
| 20260506092215 | 74 | 161 | 12.2 | 18.2 | 0.00 | 0.00 | 0.00 | 46 | 1006.4 |
| 20260506091706 | 74 | 148 | 11.3 | 17.4 | 0.00 | 0.00 | 0.00 | 46 | 1006.5 |
| 20260506091212 | 74 | 116 | 10.4 | 19.1 | 0.00 | 0.00 | 0.00 | 48 | 1006.5 |
| 20260506090705 | 74 | 123 | 9.6 | 19.1 | 0.00 | 0.00 | 0.00 | 49 | 1006.5 |
| 20260506090214 | 74 | 109 | 9.6 | 14.8 | 0.00 | 0.00 | 0.00 | 51 | 1006.5 |
| 20260506085706 | 73 | 146 | 10.4 | 14.8 | 0.00 | 0.00 | 0.00 | 50 | 1006.5 |
| 20260506085211 | 73 | 122 | 9.6 | 14.8 | 0.00 | 0.00 | 0.00 | 50 | 1006.6 |
| 20260506084711 | 74 | 146 | 8.7 | 14.8 | 0.00 | 0.00 | 0.00 | 49 | 1006.7 |
| 20260506083716 | 74 | 154 | 7.8 | 13.0 | 0.00 | 0.00 | 0.00 | 50 | 1006.6 |
| 20260506083206 | 73 | 116 | 7.0 | 12.2 | 0.00 | 0.00 | 0.00 | 50 | 1006.6 |
| 20260506082706 | 73 | 136 | 7.0 | 13.0 | 0.00 | 0.00 | 0.00 | 50 | 1006.6 |
| 20260506082217 | 73 | 157 | 7.0 | 13.0 | 0.00 | 0.00 | 0.00 | 49 | 1006.6 |
| 20260506081212 | 73 | 184 | 6.1 | 10.4 | 0.00 | 0.00 | 0.00 | 48 | 1006.4 |
| 20260506080708 | 72 | 147 | 5.2 | 10.4 | 0.00 | 0.00 | 0.00 | 48 | 1006.4 |
| 20260506073219 | 70 | 225 | 4.3 | 8.7 | 0.00 | 0.00 | 0.00 | 53 | 1006.7 |
| 20260506072709 | 69 | 207 | 3.5 | 7.0 | 0.00 | 0.00 | 0.00 | 53 | 1006.7 |
| 20260506072218 | 69 | 178 | 2.6 | 7.0 | 0.00 | 0.00 | 0.00 | 53 | 1006.8 |
| 20260506071711 | 69 | 186 | 3.5 | 6.1 | 0.00 | 0.00 | 0.00 | 54 | 1006.8 |
| 20260506071207 | 68 | 219 | 2.6 | 6.1 | 0.00 | 0.00 | 0.00 | 54 | 1006.8 |
| 20260506070719 | 68 | 173 | 2.6 | 5.2 | 0.00 | 0.00 | 0.00 | 56 | 1006.9 |
| 20260506070205 | 67 | 248 | 2.6 | 5.2 | 0.00 | 0.00 | 0.00 | 56 | 1006.9 |
| 20260506062217 | 64 | 198 | 2.6 | 7.0 | 0.00 | 0.00 | 0.00 | 60 | 1007.1 |
| 20260506061719 | 64 | 215 | 2.6 | 7.0 | 0.00 | 0.00 | 0.00 | 61 | 1007.1 |
| 20260506061208 | 63 | 224 | 3.5 | 7.0 | 0.00 | 0.00 | 0.00 | 61 | 1007.1 |
| 20260506060718 | 63 | 261 | 4.3 | 7.0 | 0.00 | 0.00 | 0.00 | 62 | 1007.2 |
| 20260506060209 | 62 | 234 | 4.3 | 7.0 | 0.00 | 0.00 | 0.00 | 62 | 1007.2 |